| time (UTC) | temp C | wind direction | speed KPH | gust KPH | rain 1hr cm | rain 24hr cm | rain mn cm | humidity % | barometer mb |
| 20260906162519 | 26 | 41 | 4.8 | 14.5 | 0.00 | 0.00 | 0.00 | 80 | 1017.5 |
| 20260906161516 | 26 | 40 | 4.8 | 14.5 | 0.00 | 0.00 | 0.00 | 80 | 1017.4 |
| 20260906160517 | 25 | 45 | 4.8 | 16.1 | 0.00 | 0.00 | 0.00 | 81 | 1017.4 |
| 20260906155520 | 25 | 34 | 8.0 | 12.9 | 0.00 | 0.00 | 0.00 | 82 | 1017.3 |
| 20260906154521 | 25 | 91 | 4.8 | 11.3 | 0.00 | 0.00 | 0.00 | 83 | 1017.2 |
| 20260906153517 | 25 | 51 | 3.2 | 8.0 | 0.00 | 0.00 | 0.00 | 84 | 1017.2 |
| 20260906152517 | 24 | 33 | 6.4 | 12.9 | 0.00 | 0.00 | 0.00 | 85 | 1017.1 |
| 20260906151517 | 23 | 53 | 4.8 | 8.0 | 0.00 | 0.00 | 0.00 | 89 | 1016.9 |
| 20260906150529 | 23 | 54 | 3.2 | 8.0 | 0.00 | 0.00 | 0.00 | 89 | 1016.8 |
| 20260906145521 | 23 | 42 | 4.8 | 9.7 | 0.00 | 0.00 | 0.00 | 89 | 1016.7 |
| 20260906144530 | 23 | 86 | 3.2 | 4.8 | 0.00 | 0.00 | 0.00 | 90 | 1016.5 |
| 20260906143521 | 23 | 88 | 4.8 | 12.9 | 0.00 | 0.00 | 0.00 | 90 | 1016.6 |
| 20260906142521 | 23 | 88 | 4.8 | 9.7 | 0.00 | 0.00 | 0.00 | 91 | 1016.6 |
| 20260906141521 | 22 | 84 | 6.4 | 12.9 | 0.00 | 0.00 | 0.00 | 91 | 1016.6 |
| 20260906140542 | 22 | 66 | 4.8 | 8.0 | 0.00 | 0.00 | 0.00 | 92 | 1016.6 |
| 20260906135522 | 22 | 96 | 4.8 | 11.3 | 0.00 | 0.00 | 0.00 | 93 | 1016.5 |
| 20260906134522 | 22 | 116 | 6.4 | 12.9 | 0.00 | 0.00 | 0.00 | 93 | 1016.5 |
| 20260906133522 | 22 | 115 | 4.8 | 11.3 | 0.00 | 0.00 | 0.00 | 93 | 1016.5 |
| 20260906132522 | 22 | 58 | 4.8 | 9.7 | 0.00 | 0.00 | 0.00 | 94 | 1016.3 |
| 20260906131522 | 21 | 46 | 4.8 | 11.3 | 0.00 | 0.00 | 0.00 | 94 | 1016.2 |
| 20260906130522 | 21 | 55 | 6.4 | 16.1 | 0.00 | 0.00 | 0.00 | 94 | 1016.2 |
| 20260906125517 | 21 | 50 | 4.8 | 14.5 | 0.00 | 0.00 | 0.00 | 94 | 1016.2 |
| 20260906124524 | 21 | 80 | 4.8 | 9.7 | 0.00 | 0.00 | 0.00 | 95 | 1016.2 |
| 20260906123544 | 21 | 51 | 4.8 | 14.5 | 0.00 | 0.00 | 0.00 | 95 | 1016.2 |
| 20260906122543 | 21 | 39 | 8.0 | 11.3 | 0.00 | 0.00 | 0.00 | 94 | 1016.1 |
| 20260906121543 | 21 | 38 | 8.0 | 14.5 | 0.00 | 0.00 | 0.00 | 94 | 1016.0 |
| 20260906120517 | 21 | 45 | 4.8 | 11.3 | 0.00 | 0.00 | 0.00 | 94 | 1015.7 |
| 20260906115517 | 21 | 59 | 4.8 | 11.3 | 0.00 | 0.00 | 0.00 | 94 | 1015.6 |
| 20260906114518 | 21 | 38 | 8.0 | 11.3 | 0.00 | 0.00 | 0.00 | 93 | 1015.4 |
| 20260906113524 | 21 | 40 | 3.2 | 6.4 | 0.00 | 0.00 | 0.00 | 93 | 1015.1 |
| 20260906112518 | 21 | 55 | 4.8 | 9.7 | 0.00 | 0.00 | 0.00 | 92 | 1015.0 |
| 20260906111518 | 21 | 40 | 3.2 | 8.0 | 0.00 | 0.00 | 0.00 | 92 | 1014.9 |
| 20260906110518 | 22 | 34 | 4.8 | 6.4 | 0.00 | 0.00 | 0.00 | 92 | 1014.9 |
| 20260906105518 | 22 | 33 | 4.8 | 6.4 | 0.00 | 0.00 | 0.00 | 91 | 1014.8 |
| 20260906104520 | 22 | 31 | 4.8 | 8.0 | 0.00 | 0.00 | 0.00 | 91 | 1014.7 |
| 20260906103519 | 22 | 40 | 3.2 | 4.8 | 0.00 | 0.00 | 0.00 | 91 | 1014.7 |
| 20260906102519 | 22 | 21 | 6.4 | 6.4 | 0.00 | 0.00 | 0.00 | 90 | 1014.7 |
| 20260906101517 | 22 | 24 | 4.8 | 8.0 | 0.00 | 0.00 | 0.00 | 90 | 1014.5 |
| 20260906100517 | 22 | 39 | 4.8 | 8.0 | 0.00 | 0.00 | 0.00 | 89 | 1014.5 |
| 20260906095519 | 22 | 30 | 6.4 | 11.3 | 0.00 | 0.00 | 0.00 | 89 | 1014.3 |
| 20260906094521 | 23 | 30 | 6.4 | 11.3 | 0.00 | 0.00 | 0.00 | 89 | 1014.2 |
| 20260906093518 | 23 | 32 | 4.8 | 11.3 | 0.00 | 0.00 | 0.00 | 88 | 1014.2 |
| 20260906092519 | 23 | 26 | 4.8 | 8.0 | 0.00 | 0.00 | 0.00 | 88 | 1014.3 |
| 20260906091518 | 23 | 37 | 6.4 | 9.7 | 0.00 | 0.00 | 0.00 | 87 | 1014.2 |
| 20260906090519 | 23 | 44 | 4.8 | 11.3 | 0.00 | 0.00 | 0.00 | 87 | 1014.1 |
| 20260906085518 | 23 | 46 | 3.2 | 6.4 | 0.00 | 0.00 | 0.00 | 87 | 1014.0 |
| 20260906084539 | 23 | 45 | 3.2 | 6.4 | 0.00 | 0.00 | 0.00 | 86 | 1013.9 |
| 20260906083519 | 23 | 47 | 3.2 | 4.8 | 0.00 | 0.00 | 0.00 | 86 | 1013.8 |
| 20260906082519 | 24 | 47 | 3.2 | 8.0 | 0.00 | 0.00 | 0.00 | 85 | 1013.8 |
| 20260906081519 | 24 | 46 | 4.8 | 9.7 | 0.00 | 0.00 | 0.00 | 84 | 1013.9 |
| 20260906080521 | 24 | 54 | 3.2 | 8.0 | 0.00 | 0.00 | 0.00 | 84 | 1013.9 |
| 20260906075519 | 25 | 70 | 3.2 | 6.4 | 0.00 | 0.00 | 0.00 | 83 | 1014.0 |
| 20260906074520 | 25 | 88 | 3.2 | 6.4 | 0.00 | 0.00 | 0.00 | 83 | 1013.9 |
| 20260906073521 | 25 | 51 | 4.8 | 9.7 | 0.00 | 0.00 | 0.00 | 83 | 1013.9 |
| 20260906072521 | 25 | 44 | 3.2 | 6.4 | 0.00 | 0.00 | 0.00 | 83 | 1013.9 |
| 20260906071520 | 25 | 28 | 1.6 | 4.8 | 0.00 | 0.00 | 0.00 | 82 | 1013.9 |
| 20260906070540 | 25 | 43 | 3.2 | 8.0 | 0.00 | 0.00 | 0.00 | 81 | 1013.8 |
| 20260906065520 | 26 | 45 | 1.6 | 3.2 | 0.00 | 0.00 | 0.00 | 80 | 1013.8 |
| 20260906064519 | 26 | 99 | 1.6 | 4.8 | 0.00 | 0.00 | 0.00 | 80 | 1014.0 |
| 20260906063520 | 26 | 94 | 3.2 | 8.0 | 0.00 | 0.00 | 0.00 | 79 | 1014.0 |
| 20260906062520 | 26 | 94 | 3.2 | 9.7 | 0.00 | 0.00 | 0.00 | 79 | 1014.0 |
| 20260906061517 | 26 | 66 | 3.2 | 9.7 | 0.00 | 0.00 | 0.00 | 79 | 1014.1 |
| 20260906060517 | 26 | 87 | 3.2 | 8.0 | 0.00 | 0.00 | 0.00 | 80 | 1014.3 |
| 20260906055541 | 27 | 91 | 3.2 | 8.0 | 0.00 | 0.00 | 0.00 | 81 | 1014.2 |
| 20260906054518 | 27 | 84 | 3.2 | 8.0 | 0.00 | 0.00 | 0.00 | 82 | 1014.1 |
| 20260906053517 | 27 | 81 | 1.6 | 4.8 | 0.00 | 0.00 | 0.00 | 82 | 1014.2 |
| 20260906052517 | 27 | 69 | 3.2 | 6.4 | 0.00 | 0.00 | 0.00 | 81 | 1014.2 |
| 20260906051518 | 27 | 96 | 1.6 | 4.8 | 0.00 | 0.00 | 0.00 | 81 | 1014.2 |
| 20260906050518 | 27 | 90 | 3.2 | 8.0 | 0.00 | 0.00 | 0.00 | 80 | 1014.1 |
| 20260906045518 | 27 | 54 | 1.6 | 6.4 | 0.00 | 0.00 | 0.00 | 80 | 1013.9 |
| 20260906044520 | 27 | 53 | 1.6 | 4.8 | 0.00 | 0.00 | 0.00 | 79 | 1013.8 |
| 20260906043518 | 28 | 40 | 1.6 | 6.4 | 0.00 | 0.00 | 0.00 | 77 | 1013.7 |
| 20260906042516 | 28 | 44 | 1.6 | 6.4 | 0.00 | 0.00 | 0.00 | 76 | 1013.5 |
| 20260906041518 | 28 | 51 | 1.6 | 4.8 | 0.00 | 0.00 | 0.00 | 75 | 1013.6 |
| 20260906040519 | 28 | 29 | 3.2 | 9.7 | 0.00 | 0.00 | 0.00 | 74 | 1013.5 |
| 20260906035519 | 28 | 65 | 1.6 | 4.8 | 0.00 | 0.00 | 0.00 | 74 | 1013.4 |
| 20260906034538 | 28 | 35 | 1.6 | 4.8 | 0.00 | 0.00 | 0.00 | 73 | 1013.3 |
| 20260906033517 | 28 | 41 | 1.6 | 6.4 | 0.00 | 0.00 | 0.00 | 73 | 1013.2 |
| 20260906032520 | 28 | 34 | 1.6 | 4.8 | 0.00 | 0.00 | 0.00 | 72 | 1013.3 |
| 20260906031520 | 28 | 30 | 3.2 | 6.4 | 0.00 | 0.00 | 0.00 | 71 | 1013.3 |
| 20260906030518 | 29 | 24 | 3.2 | 6.4 | 0.00 | 0.00 | 0.00 | 70 | 1013.2 |
| 20260906025519 | 29 | 30 | 4.8 | 8.0 | 0.00 | 0.00 | 0.00 | 69 | 1013.2 |
| 20260906024517 | 29 | 32 | 3.2 | 8.0 | 0.00 | 0.00 | 0.00 | 67 | 1013.1 |
| 20260906023539 | 29 | 22 | 3.2 | 8.0 | 0.00 | 0.00 | 0.00 | 67 | 1013.1 |
| 20260906022518 | 29 | 16 | 1.6 | 4.8 | 0.00 | 0.00 | 0.00 | 66 | 1012.9 |
| 20260906021518 | 29 | 26 | 3.2 | 6.4 | 0.00 | 0.00 | 0.00 | 65 | 1012.8 |
| 20260906020518 | 29 | 11 | 4.8 | 6.4 | 0.00 | 0.00 | 0.00 | 64 | 1012.6 |
| 20260906015518 | 29 | 11 | 4.8 | 8.0 | 0.00 | 0.00 | 0.00 | 64 | 1012.5 |
| 20260906014521 | 29 | 2 | 3.2 | 4.8 | 0.00 | 0.00 | 0.00 | 64 | 1012.4 |
| 20260906013518 | 30 | 19 | 1.6 | 3.2 | 0.00 | 0.00 | 0.00 | 62 | 1012.3 |
| 20260906012519 | 30 | 30 | 3.2 | 4.8 | 0.00 | 0.00 | 0.00 | 61 | 1012.2 |
| 20260906011520 | 30 | 8 | 1.6 | 3.2 | 0.00 | 0.00 | 0.00 | 61 | 1012.2 |
| 20260906010516 | 30 | 28 | 3.2 | 4.8 | 0.00 | 0.00 | 0.00 | 60 | 1012.0 |
| 20260906005521 | 31 | 10 | 3.2 | 4.8 | 0.00 | 0.00 | 0.00 | 58 | 1011.8 |
| 20260906004520 | 31 | 353 | 4.8 | 8.0 | 0.00 | 0.00 | 0.00 | 57 | 1011.8 |
| 20260906003517 | 31 | 350 | 6.4 | 9.7 | 0.00 | 0.00 | 0.00 | 56 | 1011.8 |
| 20260906002537 | 31 | 345 | 16.1 | 24.1 | 0.00 | 0.00 | 0.00 | 55 | 1011.8 |
| 20260906001539 | 32 | 344 | 17.7 | 24.1 | 0.00 | 0.00 | 0.00 | 55 | 1011.9 |
| 20260906000518 | 32 | 345 | 17.7 | 25.7 | 0.00 | 0.00 | 0.00 | 54 | 1011.9 |
| 20260905235518 | 32 | 344 | 17.7 | 25.7 | 0.00 | 0.00 | 0.00 | 53 | 1011.9 |
| 20260905234518 | 33 | 344 | 17.7 | 25.7 | 0.00 | 0.00 | 0.00 | 52 | 1011.9 |
| 20260905233518 | 33 | 345 | 17.7 | 25.7 | 0.00 | 0.00 | 0.00 | 52 | 1011.9 |
| 20260905232538 | 34 | 346 | 17.7 | 24.1 | 0.00 | 0.00 | 0.00 | 51 | 1011.9 |
| 20260905231518 | 34 | 349 | 17.7 | 24.1 | 0.00 | 0.00 | 0.00 | 50 | 1011.8 |
| 20260905230519 | 35 | 313 | 4.8 | 6.4 | 0.00 | 0.00 | 0.00 | 48 | 1011.6 |
| 20260905225519 | 35 | 314 | 4.8 | 6.4 | 0.00 | 0.00 | 0.00 | 46 | 1011.6 |
| 20260905224520 | 35 | 313 | 4.8 | 6.4 | 0.00 | 0.00 | 0.00 | 44 | 1011.5 |
| 20260905223601 | 36 | 314 | 4.8 | 6.4 | 0.00 | 0.00 | 0.00 | 43 | 1011.6 |
| 20260905222520 | 36 | 313 | 4.8 | 6.4 | 0.00 | 0.00 | 0.00 | 41 | 1011.7 |
| 20260905221520 | 36 | 313 | 4.8 | 6.4 | 0.00 | 0.00 | 0.00 | 42 | 1011.6 |
| 20260905220517 | 35 | 314 | 4.8 | 6.4 | 0.00 | 0.00 | 0.00 | 45 | 1011.6 |
| 20260905215517 | 35 | 314 | 4.8 | 6.4 | 0.00 | 0.00 | 0.00 | 47 | 1011.6 |
| 20260905214520 | 35 | 313 | 4.8 | 6.4 | 0.00 | 0.00 | 0.00 | 48 | 1011.5 |
| 20260905213521 | 35 | 313 | 4.8 | 6.4 | 0.00 | 0.00 | 0.00 | 49 | 1011.6 |
| 20260905212538 | 36 | 313 | 4.8 | 6.4 | 0.00 | 0.00 | 0.00 | 48 | 1011.5 |
| 20260905211517 | 36 | 313 | 4.8 | 6.4 | 0.00 | 0.00 | 0.00 | 42 | 1011.6 |
| 20260905210519 | 36 | 313 | 4.8 | 6.4 | 0.00 | 0.00 | 0.00 | 41 | 1011.5 |
| 20260905205522 | 37 | 313 | 4.8 | 6.4 | 0.00 | 0.00 | 0.00 | 41 | 1011.5 |
| 20260905204518 | 37 | 313 | 4.8 | 6.4 | 0.00 | 0.00 | 0.00 | 41 | 1011.7 |
| 20260905203519 | 37 | 315 | 3.2 | 6.4 | 0.00 | 0.00 | 0.00 | 41 | 1011.6 |
| 20260905202518 | 37 | 313 | 6.4 | 8.0 | 0.00 | 0.00 | 0.00 | 41 | 1011.8 |
| 20260905201518 | 37 | 311 | 4.8 | 8.0 | 0.00 | 0.00 | 0.00 | 40 | 1011.9 |
| 20260905200521 | 37 | 313 | 4.8 | 6.4 | 0.00 | 0.00 | 0.00 | 40 | 1011.9 |
| 20260905195519 | 37 | 313 | 4.8 | 6.4 | 0.00 | 0.00 | 0.00 | 40 | 1012.0 |
| 20260905194521 | 37 | 313 | 4.8 | 6.4 | 0.00 | 0.00 | 0.00 | 41 | 1012.2 |
| 20260905193519 | 37 | 308 | 4.8 | 8.0 | 0.00 | 0.00 | 0.00 | 40 | 1012.1 |
| 20260905192519 | 36 | 307 | 6.4 | 9.7 | 0.00 | 0.00 | 0.00 | 42 | 1012.4 |
| 20260905191537 | 36 | 308 | 6.4 | 8.0 | 0.00 | 0.00 | 0.00 | 40 | 1012.5 |
| 20260905190520 | 36 | 308 | 6.4 | 9.7 | 0.00 | 0.00 | 0.00 | 42 | 1012.6 |
| 20260905185520 | 36 | 311 | 4.8 | 8.0 | 0.00 | 0.00 | 0.00 | 43 | 1012.7 |
| 20260905184517 | 36 | 313 | 3.2 | 6.4 | 0.00 | 0.00 | 0.00 | 44 | 1012.8 |
| 20260905183519 | 36 | 308 | 3.2 | 4.8 | 0.00 | 0.00 | 0.00 | 45 | 1013.0 |
| 20260905182517 | 36 | 308 | 3.2 | 4.8 | 0.00 | 0.00 | 0.00 | 45 | 1013.1 |
| 20260905181521 | 36 | 309 | 3.2 | 4.8 | 0.00 | 0.00 | 0.00 | 47 | 1013.2 |
| 20260905180518 | 36 | 311 | 3.2 | 4.8 | 0.00 | 0.00 | 0.00 | 47 | 1013.2 |
| 20260905175519 | 36 | 312 | 3.2 | 4.8 | 0.00 | 0.00 | 0.00 | 47 | 1013.3 |
| 20260905174518 | 35 | 135 | 3.2 | 8.0 | 0.00 | 0.00 | 0.00 | 48 | 1013.4 |
| 20260905173520 | 35 | 136 | 3.2 | 8.0 | 0.00 | 0.00 | 0.00 | 50 | 1013.5 |
| 20260905172518 | 35 | 137 | 3.2 | 8.0 | 0.00 | 0.00 | 0.00 | 50 | 1013.5 |
| 20260905171519 | 35 | 134 | 3.2 | 9.7 | 0.00 | 0.00 | 0.00 | 50 | 1013.6 |
| 20260905170520 | 35 | 333 | 4.8 | 12.9 | 0.00 | 0.00 | 0.00 | 52 | 1013.8 |
| 20260905165518 | 34 | 356 | 4.8 | 14.5 | 0.00 | 0.00 | 0.00 | 51 | 1014.0 |
| 20260905164520 | 34 | 340 | 8.0 | 16.1 | 0.00 | 0.00 | 0.00 | 53 | 1014.2 |
| 20260905163519 | 33 | 338 | 6.4 | 14.5 | 0.00 | 0.00 | 0.00 | 54 | 1014.2 |